This is the latest recevied weather packets stored in our database for station/object KB3AWQ. If no packets are shown the sender has not sent any weather packets the latest 10 day(s).
| Time | Temp. | Humidity | Pressure | Rain* | Wind** | Luminosity | Snow |
|---|---|---|---|---|---|---|---|
| 1777898967 | 9.44° C | 69% | 1012.6 hPa | 0 mm | - | 426 W/m² | - |
| 1777898669 | 9.44° C | 72% | 1012.6 hPa | 0 mm | - | 408 W/m² | - |
| 1777898368 | 8.89° C | 73% | 1012.6 hPa | 0 mm | - | 389 W/m² | - |
| 1777898067 | 8.33° C | 75% | 1012.4 hPa | 0 mm | - | 373 W/m² | - |
| 1777897766 | 8.33° C | 74% | 1012.4 hPa | 0 mm | - | 362 W/m² | - |
| 1777897466 | 8.33° C | 75% | 1012.3 hPa | 0 mm | - | 289 W/m² | - |
| 1777897168 | 8.33° C | 75% | 1012.5 hPa | 0 mm | - | 258 W/m² | - |
| 1777896868 | 8.89° C | 75% | 1012.6 hPa | 0 mm | - | 262 W/m² | - |
| 1777896567 | 8.33° C | 76% | 1012.7 hPa | 0 mm | - | 348 W/m² | - |
| 1777896267 | 7.78° C | 79% | 1012.7 hPa | 0 mm | - | 376 W/m² | - |
| 1777895966 | 7.78° C | 79% | 1012.7 hPa | 0 mm | - | 291 W/m² | - |
| 1777895667 | 7.22° C | 78% | 1012.8 hPa | 0 mm | - | 146 W/m² | - |
| 1777895367 | 6.67° C | 81% | 1012.8 hPa | 0 mm | - | 255 W/m² | - |
| 1777895067 | 5.56° C | 84% | 1012.7 hPa | 0 mm | - | 129 W/m² | - |
| 1777894766 | 5° C | 90% | 1012.7 hPa | 0 mm | - | 207 W/m² | - |
| 1777894467 | 3.89° C | 92% | 1012.7 hPa | 0 mm | - | 204 W/m² | - |
| 1777894167 | 3.89° C | 92% | 1012.7 hPa | 0 mm | - | 126 W/m² | - |
| 1777893867 | 3.33° C | 92% | 1012.8 hPa | 0 mm | - | 68 W/m² | - |
| 1777893566 | 3.33° C | 93% | 1012.7 hPa | 0 mm | - | 69 W/m² | - |
| 1777893267 | 3.33° C | 94% | 1012.8 hPa | 0 mm | - | 62 W/m² | - |
| 1777892966 | 3.33° C | 94% | 1012.7 hPa | 0 mm | - | 54 W/m² | - |
| 1777892667 | 3.33° C | 95% | 1012.6 hPa | 0 mm | - | 52 W/m² | - |
| 1777892367 | 2.78° C | 96% | 1012.6 hPa | 0 mm | - | 51 W/m² | - |
| 1777892067 | 2.78° C | 96% | 1012.5 hPa | 0 mm | - | 40 W/m² | - |
| 1777891767 | 2.78° C | 97% | 1012.5 hPa | 0 mm | - | 33 W/m² | - |
* Rain latest hour (hover to see other rain measurements)
** Current wind speed in m/s (hover to see current wind gust speed)